Regional Weather Roundup
Issued by NWS

Home | Current Version | Previous Version | Graphics & Text | Print | Product List | Glossary On
Versions: 1 2 3 4 5 6 7 8 9 10 11 12 13 14 15 16 17 18 19 20 21 22 23 24 25 26 27 28 29 30 31 32 33 34 35 36 37 38 39 40 41 42 43 44 45 46 47 48 49 50
000
ASUS43 KBIS 282302
RWRND

NORTH DAKOTA REGIONAL WEATHER ROUNDUP
NATIONAL WEATHER SERVICE BISMARCK ND
600 PM CDT THU APR 28 2016

NOTE: "FAIR" INDICATES FEW OR NO CLOUDS BELOW 12,000 FEET WITH NO
SIGNIFICANT WEATHER AND/OR OBSTRUCTIONS TO VISIBILITY.


NDZ001>003-009>011-017-290000-
NORTHWEST NORTH DAKOTA

CITY           SKY/WX    TMP DP  RH WIND       PRES   REMARKS
WILLISTON      CLOUDY    58  21  24 E10       30.13S
MINOT          MOSUNNY   59  11  15 NE12      30.14R
MINOT AFB      MOSUNNY   56  14  19 E17       30.13R
$$

NDZ018>021-031>035-040>046-290000-
SOUTHWEST NORTH DAKOTA

CITY           SKY/WX    TMP DP  RH WIND       PRES   REMARKS
BISMARCK       CLOUDY    54  21  27 NE10      30.09S
DICKINSON      CLOUDY    50  25  37 E9        30.08R
GARRISON         N/A     55  18  23 E12       30.11S
HETTINGER ARPT CLOUDY    46  33  60 NE7       30.11R
$$

NDZ004>008-012>016-024-026-027-054-290000-
NORTHEAST NORTH DAKOTA

CITY           SKY/WX    TMP DP  RH WIND       PRES   REMARKS
GRAND FORKS    PTSUNNY   56  25  30 NE17      30.12R
GRND FRKS AFB  MOSUNNY   56  21  26 NE14      30.13R
DEVILS LAKE    PTSUNNY   53  19  26 E13       30.14S
$$

NDZ022-023-025-028>030-036>039-047>053-290000-
SOUTHEAST NORTH DAKOTA

CITY           SKY/WX    TMP DP  RH WIND       PRES   REMARKS
FARGO          CLOUDY    60  22  23 NE8       30.06R
JAMESTOWN      CLOUDY    54  22  28 E14       30.09R
$$





USA.gov is the U.S. government's official web portal to all federal, state and local government web resources and services.